Other Public Products
Issued by NWS Grand Forks, ND

Home | Current Version | Previous Version | Graphics & Text | Print | Product List | Glossary On
Versions: 1 2 3 4 5 6 7 8 9 10 11 12 13 14 15 16 17 18 19 20 21 22 23 24 25 26 27 28 29 30 31 32 33 34 35 36 37 38 39 40 41 42 43 44 45 46 47 48 49 50
000
FPUS83 KFGF 192210
OPUFGF
PRAIRIE TO PINES WEATHER ROUNDUP
NATIONAL WEATHER SERVICE EASTERN NORTH DAKOTA/GRAND FORKS ND
400 PM CST MON FEB 19 2018

 **SATELLITE DATA USED TO AUGMENT SKY COVER AT AUTOMATED STATIONS**
 *****  WEATHER ACROSS EASTERN NORTH DAKOTA  *****

CITY           SKY/WX    TMP DP  RH WIND       PRES   REMARKS
GRAND FORKS    CLOUDY     6  -4  63 N17       30.23S WCI -13
GRND FORKS AFB PTSUNNY    5  -6  60 N14       30.23R WCI -12
GRND FORKS NWS   N/A      6  -3  68 N14       30.21R WCI -12
BUXTON           N/A      6   2  84 N10         N/A  WCI  -9
DEVILS LAKE    FAIR       4  -8  57 NE9       30.19F WCI -10
FARGO          CLOUDY     9   0  67 N22       30.16R WCI -11
WAHPETON ARPT  CLOUDY    12   3  67 N15G26    30.09F VSB 1   WCI  -4
$$

 *****  WEATHER ACROSS CENTRAL AND WESTERN NORTH DAKOTA  *****

CITY           SKY/WX    TMP DP  RH WIND       PRES   REMARKS
JAMESTOWN      FLURRIES   6  -5  60 NE17      30.13S WCI -13
BISMARCK       LGT SNOW   5  -3  69 NE13      30.16R WCI -12
MINOT          CLOUDY     8  -3  61 CALM      30.15F
MINOT AFB      FAIR       8  -8  49 SW3       30.14F
GARRISON         N/A      6  -8  52 NW5       30.13F WCI  -3
WILLISTON      FAIR       5  -3  69 CALM      30.15S
DICKINSON      LGT SNOW   3  -3  76 N8        30.03F VSB 1   WCI -10
HETTINGER      LGT SNOW   2  -5  72 NE12      30.04R WCI -15
$$

 *****  OTHER OBSERVATIONS NORTHEAST NORTH DAKOTA  *****

CITY           SKY/WX    TMP DP  RH WIND       PRES   REMARKS
WALHALLA       FAIR       7  -8  51 N6        30.26F WCI  -3
LANGDON        FAIR       5  -8  56 N5        30.18F WCI  -4
CAVALIER         N/A      5  -8  56 N10       30.26F WCI -10
GRAFTON        FAIR       5  -6  61 N13       30.27  WCI -12
CANDO          FAIR       7  -9  47 N5        30.21S WCI  -2
FORT TOTTEN      N/A      7  -9  47 N3        29.95S
ROLLA          FAIR       3  -9  55 SW7       30.16R WCI  -9
RUGBY          FAIR       5  -8  56 CALM      30.18
 ***** THE ABOVE OBSERVATIONS ARE NON NWS ARE NOT QUALITY
        CONTROLLED AND MAY MIS-REPORT RAIN FOR SNOW...
$$

 *****  OTHER OBSERVATIONS SOUTHEAST NORTH DAKOTA *****

CITY           SKY/WX    TMP DP  RH WIND       PRES   REMARKS
COOPERSTOWN    FAIR       5  -6  61 N15       30.17S WCI -13
VALLEY CITY    CLOUDY     5  -8  56 N16       30.15F WCI -14
OAKES            N/A      7   0  72 N20G32    30.10S WCI -13
GWINNER          N/A      7   1  78 N24       30.08F HAZE    WCI -15
SHEYENNE NWR     N/A      8  -2  63 N14       29.95S WCI  -8
BUFFALO          N/A      5  -6  61 SE16        N/A  WCI -14
WYNDMERE       NOT AVBL
 ***** THE ABOVE OBSERVATIONS ARE NON NWS ARE NOT QUALITY
       CONTROLLED AND MAY MIS-REPORT RAIN FOR SNOW...
$$

  *****  WEATHER ACROSS NORTHERN MINNESOTA  *****

CITY           SKY/WX    TMP DP  RH WIND       PRES   REMARKS
FLAG ISLAND    FAIR       7  -9  47 NE9       30.21R WCI  -7
WARROAD        FAIR       7  -2  66 NE7       30.21R WCI  -5
ROSEAU         NOT AVBL
HALLOCK        FAIR       7  -6  56 NW14      30.24F WCI -10
THF RVR FALLS  PTSUNNY    7  -4  60 N16       30.18R WCI -11
HALSTAD        NOT AVBL
FOSSTON        FAIR      10  -2  56 N12       30.13R WCI  -4
BAUDETTE       FAIR      10  -3  55 NE8       30.15R WCI  -2
WASKISH        FAIR      12   0  57 NE13      30.14R WCI  -3
CROOKSTON      FAIR       9  -2  61 N14       30.22R WCI  -8
$$
  *****  WEATHER ACROSS CENTRAL AND WEST MINNESOTA  *****

CITY           SKY/WX    TMP DP  RH WIND       PRES   REMARKS
BEMIDJI        PTSUNNY   12   2  64 N9        30.07S WCI  -1
PARK RAPIDS    CLOUDY    13   0  56 NE12G22   30.03R WCI  -1
WADENA         LGT SNOW  10   1  67 N12       30.02R WCI  -4
DETROIT LAKES  FAIR      16   1  53 N6        30.09R WCI   7
MOORHEAD       FAIR       9   0  66 N24       30.14F WCI -12
FERGUS FALLS   FLURRIES  12   5  73 N13G22    30.07R WCI  -3
ELBOW LAKE     FLURRIES  13   4  67 N14G21    30.04R WCI  -2
MORRIS MN      CLOUDY    16   7  67 N18G24    30.00R WCI  -1
STAPLES        CLOUDY    12   1  62 N10G17    30.00R WCI  -1
WHEATON        LGT SNOW  12   5  73 N21       30.07F WCI  -6
$$
  *****  WEATHER ELSEWHERE ACROSS MINNESOTA  *****

CITY           SKY/WX    TMP DP  RH WIND       PRES   REMARKS
DULUTH         LGT SNOW  14   8  77 NE14G24   30.01S VSB 1   WCI  -1
INTRNTL FALLS  FAIR      11  -2  56 NE9       30.15R WCI  -2
ELY            FAIR      10   3  72 NE6       30.07F WCI   1
CLOQUET        LGT SNOW  16   9  73 NE17      30.00S WCI   0
BRAINERD       CLOUDY    15   5  64 NE12      30.00S WCI   2
HIBBING        CLOUDY    10   1  67 N12       30.05F WCI  -5
ALEXANDRIA     CLOUDY    14   6  70 N16G23    29.97R WCI  -2
SAINT CLOUD    LGT SNOW  16  11  80 N13G23    29.93R WCI   2
MINNEAPOLIS    LGT SNOW  22  20  92 NE17      29.86R FOG     WCI   8
$$

  *****  WEATHER ACROSS SOUTH DAKOTA  *****

CITY           SKY/WX    TMP DP  RH WIND       PRES   REMARKS
SIOUX FALLS    LGT SNOW  16  12  84 NE18G28   29.87S FOG     WCI   0
BROOKINGS      NOT AVBL
WATERTOWN      CLOUDY     9   5  84 N22G36    29.91F FOG     WCI -11
HURON          LGT SNOW  12   7  80 N20G28    29.97S WCI  -6
SISSETON         N/A     11   6  81 N23G32    30.04F WCI  -9
ABERDEEN       LGT SNOW  10   5  80 N23G30    30.07S VSB 1   WCI -10
MITCHELL       LGT SNOW  14  10  84 N22       29.94F FOG     WCI  -4
PIERRE         LGT SNOW   8   4  83 N20       29.99F FOG     WCI -11
MOBRIDGE       LGT SNOW   8   1  73 N15       30.03F VSB 3/4 WCI  -9
RAPID CITY     SNOW       0  -5  79 N14       29.93F VSB 1/2 WCI -19
$$

  *****  SOME WEATHER IN NEARBY STATES *****

CITY           SKY/WX    TMP DP  RH WIND       PRES   REMARKS
GLASGOW MT     FAIR       0  -6  76 NW7       30.12R WCI -13
GREAT FALLS MT FAIR      -2  -9  72 W3        29.98S
CHEYENNE WY    LGT SNOW   5   2  87 E9        29.52R VSB 1   WCI  -9
SCOTTSBLUFF NE LGT SNOW   6  -1  73 NE17      29.75F WCI -13
OMAHA NE       FRZ DRZL  23  21  92 NW17      29.84R WCI   9
DES MOINES IA  CLOUDY    33  32  96 W13       29.75R WCI  24
DAVENPORT IA   PTSUNNY   62  55  77 S21       29.69S
CHICAGO IL     CLOUDY    57  53  86 SW18G28   29.78R
EAU CLAIRE WI  CLOUDY    23  21  92 NE13      29.82F FOG     WCI  11
LA CROSSE WI   LGT RAIN  38  33  82 NE10G21   29.75S
$$

  *****  SOME NATIONAL WEATHER *****

CITY           SKY/WX    TMP DP  RH WIND       PRES   REMARKS
LA GUARDIA NY  CLOUDY    48  42  80 S8        30.36F
RALEIGH NC     DRZL/FOG  49  48  97 SE3       30.39S VSB 1/4
ATLANTA GA     PTSUNNY   76  58  53 S10       30.25S
NEW ORLEANS LA FAIR      81  66  60 S14       30.10S
OKLAHOMA CITY  CLOUDY    52  41  66 N12       29.73R
ALBUQUERQUE NM LGT RAIN  53  40  61 S23G40    29.57F
SALT LAKE CITY PTSUNNY   30  17  58 NW15      29.60R WCI  19
LOS ANGELES CA FAIR      58  33  39 W30       29.90F
BOISE ID       FAIR      30  10  43 NW23G31   29.81R WCI  17
SEATTLE WA     FAIR      36  12  37 N12       30.20F
$$

*** WEATHER ACROSS MANITOBA...SASKATCHEWAN AND ONTARIO ***
                ***ONTARIO***

CITY           SKY/WX    TMP DP  RH WIND       PRES   REMARKS
GERALDTON      CLOUDY     0  -8  71 NE9       30.28R WCI -16
THUNDER BAY    CLOUDY    12  -2  52 NE12      30.20S WCI  -2
SIOUX LOOKOUT  CLOUDY     5 -13  43 E6        30.21R WCI  -6
TORONTO        LGT RAIN  39  37  93 E7        30.00F VSB 3/8
BIG TROUT LK   CLEAR    -13 -35  33 S2        30.34S
PICKLE LAKE    PTSUNNY    0 -27  27 SE2       30.24F
DRYDEN         CLOUDY     5 -11  47 NE9       30.18S WCI  -9
KENORA         PTSUNNY    5 -11  47 NE6       30.18S WCI  -6
$$
                *** MANITOBA***

CITY           SKY/WX    TMP DP  RH WIND       PRES   REMARKS
BRANDON        CLOUDY     7  -6  56 SW5       30.19F WCI  -2
DAUPHIN        SUNNY      3  -6  66 W3        30.19F
ISLAND LAKE    SUNNY     -4 -22  41 SE7       30.24F WCI -18
PILOT MOUND      N/A      3  -8  60 SW2         N/A
THE PAS        MOSUNNY    7  -9  47 S13       30.07S WCI  -9
THOMPSON       MOSUNNY    1 -15  46 S8        30.08S WCI -12
WINNIPEG       PTSUNNY    3 -13  47 N7        30.29S WCI  -9
LYNN LAKE      MOSUNNY    1  -9  60 S12       29.87F WCI -15
CHURCHILL      MOCLDY   -20 -31  57 W5        30.23R WCI -33
GILLAM         PTSUNNY   -6 -20  49 S12       30.18R WCI -24
$$
                ***SASKATCHEWAN***

CITY           SKY/WX    TMP DP  RH WIND       PRES   REMARKS
ESTEVAN        CLOUDY     1  -6  71 W5        30.15R WCI  -8
KINDERSLEY     MOSUNNY    1  -4  78 SW13      30.03S WCI -16
LLOYDMINSTER   MOSUNNY    7  -2  66 SW17      29.89F WCI -12
PRINCE ALBERT  MOSUNNY    5  -8  56 S15       30.03F WCI -13
REGINA         PTSUNNY    3  -4  72 SW8       30.11S WCI -10
YORKTON        SUNNY      5  -6  61 SW12      30.13S WC



USA.gov is the U.S. government's official web portal to all federal, state and local government web resources and services.